Regional Weather Roundup
Issued by NWS

Home | Current Version | Previous Version | Text Only | Print | Product List | Glossary Off
Versions: 1 2 3 4 5 6 7 8 9 10 11 12 13 14 15 16 17 18 19 20 21 22 23 24 25 26 27 28 29 30 31 32 33 34 35 36 37 38 39 40 41 42 43 44 45 46 47 48 49 50

000
ASUS45 KBOU 010407
RWRCO

WEATHER ROUNDUP FOR COLORADO
NATIONAL WEATHER SERVICE DENVER/BOULDER CO
1000 PM MDT TUE SEP 30 2014

NOTE: "FAIR" INDICATES FEW OR NO CLOUDS BELOW 12000 FEET WITH NO
SIGNIFICANT WEATHER AND/OR OBSTRUCTIONS TO VISIBILITY.

COZ001>005-013-030-031-010500-
...NORTHWEST COLORADO...

CITY           SKY/WX    TMP DP  RH WIND       PRES   REMARKS
CRAIG          CLOUDY    48  42  80 NE5       29.99S
HAYDEN         MOCLDY    45  39  81 E9        30.00S
MEEKER         PTCLDY    45  40  82 CALM      29.99F
MOUNT WERNER   NOT AVBL
STEAMBOAT SPGS MOCLDY    41  39  94 E6        30.01F
WALDEN         CLOUDY    37  32  81 S9        30.02S
$$

COZ006>008-011-010500-
...WEST CENTRAL VALLEYS...

CITY           SKY/WX    TMP DP  RH WIND       PRES   REMARKS
GRAND JUNCTION PTCLDY    50  46  86 NE3       29.93S
MONTROSE       CLEAR     47  43  86 S7        30.00S
EAGLE          CLOUDY    45  43  93 NE6       30.06S
RIFLE          PTCLDY    46  40  79 E6        29.98S
DELTA          CLEAR     52  46  78 NE6       29.98S
NUCLA          CLEAR     50  43  76 E9        30.03R
$$

COZ017>023-064>068-010500-
...SOUTHWEST COLORADO...

CITY           SKY/WX    TMP DP  RH WIND       PRES   REMARKS
DURANGO        CLEAR     46  38  73 N5        30.03S
CORTEZ         CLEAR     46  42  86 NE7       30.00R
PAGOSA SPRINGS CLEAR     42  40  92 CALM      30.08R
TELLURIDE      PTCLDY   N/A N/A N/A E6        30.13S
WOLF CREEK PAS CLOUDY    30  30 100 SW17      30.22S WCI  18
$$

COZ009-010-012-014-032>034-037-058>063-010500-
...CENTRAL COLORADO...

CITY           SKY/WX    TMP DP  RH WIND       PRES   REMARKS
ASPEN          CLOUDY    39  36  89 CALM      30.06S
BUENA VISTA    PTCLDY    42  32  69 N7        30.04S
COPPER MTN     LGT SNOW  34  30  86 W8G16     30.18S VSB 1   WCI  27
BERTHOUD PASS  FOG       25  23  93 NW18G31   30.17R VSB<1/4 WCI  11
COTTONWOOD PAS PTCLDY    43  30  61 NW12G20   30.10S
GUNNISON       PTCLDY    39  34  81 CALM      30.08S
KREMMLING      CLOUDY    41  37  87 CALM      30.06R
LEADVILLE      CLOUDY    36  29  75 NW9       30.09F
SALIDA         PTCLDY    48  34  59 W7        30.09S
SUNLIGHT       PTCLDY    34  34 100 CALM      30.16S
WILKERSON PASS NOT AVBL
$$

COZ069>075-010500-
...SAN LUIS VALLEY/SANGRE DE CRISTO MOUNTAINS...

CITY           SKY/WX    TMP DP  RH WIND       PRES   REMARKS
ALAMOSA        CLEAR     41  34  76 CALM      30.04R
LA VETA PASS   CLEAR     37  30  75 S8        30.12S
SAGUACHE       CLEAR     39  34  81 N10       30.07R
$$

COZ035-036-038>040-010500-
...NORTHERN COLORADO FRONT RANGE...

CITY           SKY/WX    TMP DP  RH WIND       PRES   REMARKS
DENVER INTL AP CLOUDY    58  36  43 NW9       29.88S
DMNS CITY PARK   N/A     58  35  43 NW2       29.89S
AURORA         PTCLDY    54  39  57 NW6       29.90S
FRONT RANGE AP CLOUDY    57  39  51 W5        29.89F
ERIE MUNI ARPT MOCLDY    58  35  42 SW6       29.87F
BOULDER MUN AP MOCLDY    57  36  44 SW3       29.87S
CENTENNIAL     MOCLDY    52  36  54 CALM      29.90S
BROOMFIELD     MOCLDY    57  34  41 W12       29.91S
FORT COLLINS   CLOUDY    57  39  51 CALM      29.88S
LONGMONT       CLOUDY    58  39  49 S5        29.88F
$$

COZ041-046-047-076>085-087-088-010500-
...PIKES PEAK/PALMER DIVIDE AND SOUTHERN FOOTHILLS...

CITY           SKY/WX    TMP DP  RH WIND       PRES   REMARKS
COLO. SPRINGS  PTCLDY    59  29  31 NW17      29.91F
A. F. ACADEMY  PTCLDY    56  28  33 W8        29.94S
ELLICOTT       NOT AVBL
FALCON         PTCLDY    53  31  42 NW10      29.96S
FORT CARSON    PTCLDY    53  37  52 S8        29.90R
LIMON          LGT RAIN  56  41  57 NW8       29.89R
MONUMENT HILL  MOCLDY    43  36  75 SW5       29.95S
TRINIDAD       PTCLDY    54  35  48 NW9       29.91R
$$

COZ042>045-048>051-090-091-010500-
...NORTHEAST COLORADO...

CITY           SKY/WX    TMP DP  RH WIND       PRES   REMARKS
GREELEY ARPT   CLOUDY    55  43  62 CALM      29.87S
AKRON          MOCLDY    54  41  61 SW7       29.83S
BURLINGTON     MOCLDY    53  46  77 W7        29.81S
WRAY           CLOUDY    56  47  71 W3        29.79R
STERLING       MOCLDY    64  45  48 W7        29.81R
HOLYOKE        CLOUDY    55  48  76 W7        29.79S
FORT MORGAN    MOCLDY    57  42  58 NW3       29.84S
$$

COZ086-089-092>099-010500-
...SOUTHEAST COLORADO...

CITY           SKY/WX    TMP DP  RH WIND       PRES   REMARKS
PUEBLO         CLEAR     58  34  40 NW13      29.84R
LA JUNTA       MOCLDY    64  37  36 SW8       29.81R
LAMAR          PTCLDY    57  44  62 CALM      29.77R
SPRINGFIELD      N/A     54  42  64 CALM      29.81F
$$


USA.gov is the U.S. government's official web portal to all federal, state and local government web resources and services.